| time (UTC) | temp F | wind direction | speed knots | gust knots | rain 1hr in | rain 24hr in | rain mn in | humidity % | barometer mb |
| 20260507231018 | 58 | 0.0 | 0.0 | 0.01 | 0.40 | 0.01 | 92 | 1015.1 | |
| 20260507230035 | 58 | 0.0 | 0.0 | 0.01 | 0.40 | 0.01 | 92 | 1015.3 | |
| 20260507225031 | 58 | 0.0 | 0.0 | 0.02 | 0.40 | 0.01 | 92 | 1015.2 | |
| 20260507224028 | 58 | 283 | 0.9 | 4.3 | 0.02 | 0.40 | 0.01 | 92 | 1015.2 |
| 20260507223024 | 58 | 0.0 | 0.0 | 0.02 | 0.40 | 0.01 | 91 | 1015.2 | |
| 20260507222020 | 58 | 0.0 | 0.0 | 0.04 | 0.40 | 0.01 | 91 | 1015.0 | |
| 20260507221017 | 58 | 0.0 | 0.0 | 0.04 | 0.39 | 0.00 | 91 | 1015.0 | |
| 20260507220034 | 58 | 0.0 | 0.0 | 0.05 | 0.39 | 0.39 | 91 | 1015.1 | |
| 20260507215031 | 58 | 203 | 0.0 | 4.3 | 0.05 | 0.38 | 0.38 | 91 | 1015.1 |
| 20260507214027 | 59 | 199 | 0.0 | 1.7 | 0.07 | 0.38 | 0.38 | 91 | 1015.1 |
| 20260507213024 | 59 | 199 | 0.0 | 1.7 | 0.07 | 0.38 | 0.38 | 91 | 1015.1 |
| 20260507212041 | 59 | 0.0 | 0.0 | 0.07 | 0.37 | 0.37 | 91 | 1015.0 | |
| 20260507211017 | 59 | 0.0 | 0.0 | 0.06 | 0.35 | 0.35 | 91 | 1015.1 | |
| 20260507210034 | 59 | 0.0 | 0.0 | 0.06 | 0.34 | 0.34 | 91 | 1014.8 | |
| 20260507205030 | 59 | 0.0 | 0.0 | 0.05 | 0.33 | 0.33 | 91 | 1014.8 | |
| 20260507204027 | 59 | 0.0 | 0.0 | 0.02 | 0.31 | 0.31 | 91 | 1014.7 | |
| 20260507203023 | 59 | 0.0 | 0.0 | 0.02 | 0.31 | 0.31 | 91 | 1014.8 | |
| 20260507202020 | 59 | 0.0 | 0.0 | 0.01 | 0.30 | 0.30 | 91 | 1014.6 | |
| 20260507201016 | 59 | 0.0 | 0.0 | 0.01 | 0.30 | 0.30 | 91 | 1014.5 | |
| 20260507200053 | 59 | 0.0 | 0.0 | 0.00 | 0.28 | 0.28 | 91 | 1014.5 | |
| 20260507195029 | 59 | 0.0 | 0.0 | 0.00 | 0.28 | 0.28 | 91 | 1014.5 | |
| 20260507194025 | 59 | 0.0 | 0.0 | 0.00 | 0.28 | 0.28 | 91 | 1014.4 | |
| 20260507193042 | 59 | 0.0 | 0.0 | 0.00 | 0.28 | 0.28 | 91 | 1014.4 | |
| 20260507192039 | 59 | 0.0 | 0.0 | 0.01 | 0.28 | 0.28 | 91 | 1014.4 | |
| 20260507191015 | 59 | 0.0 | 0.0 | 0.01 | 0.28 | 0.28 | 91 | 1014.4 | |
| 20260507190032 | 59 | 0.0 | 0.0 | 0.01 | 0.28 | 0.28 | 91 | 1014.1 | |
| 20260507185028 | 59 | 0.0 | 0.0 | 0.01 | 0.28 | 0.28 | 91 | 1014.1 | |
| 20260507184025 | 59 | 0.0 | 0.0 | 0.01 | 0.28 | 0.28 | 91 | 1014.0 | |
| 20260507183042 | 59 | 0.0 | 0.0 | 0.01 | 0.28 | 0.28 | 90 | 1013.9 | |
| 20260507182018 | 59 | 187 | 0.0 | 1.7 | 0.00 | 0.27 | 0.27 | 90 | 1013.7 |
| 20260507181034 | 59 | 0.0 | 0.0 | 0.00 | 0.27 | 0.27 | 90 | 1013.6 | |
| 20260507180051 | 59 | 0.0 | 0.0 | 0.00 | 0.27 | 0.27 | 90 | 1013.5 | |
| 20260507175027 | 59 | 0.0 | 0.0 | 0.00 | 0.27 | 0.27 | 90 | 1013.4 | |
| 20260507174024 | 59 | 0.0 | 1.7 | 0.00 | 0.27 | 0.27 | 90 | 1013.4 | |
| 20260507173021 | 60 | 0.0 | 0.0 | 0.00 | 0.27 | 0.27 | 90 | 1013.4 | |
| 20260507172017 | 60 | 0.0 | 0.0 | 0.00 | 0.27 | 0.27 | 90 | 1013.5 | |
| 20260507171034 | 60 | 0.0 | 0.0 | 0.00 | 0.27 | 0.27 | 90 | 1013.6 | |
| 20260507170030 | 60 | 0.0 | 0.0 | 0.00 | 0.27 | 0.27 | 90 | 1013.6 | |
| 20260507165047 | 60 | 0.0 | 0.0 | 0.01 | 0.27 | 0.27 | 90 | 1013.5 | |
| 20260507164023 | 60 | 0.0 | 0.0 | 0.02 | 0.27 | 0.27 | 90 | 1013.3 | |
| 20260507163019 | 60 | 0.0 | 0.0 | 0.04 | 0.27 | 0.27 | 90 | 1013.4 | |
| 20260507162036 | 60 | 0.0 | 1.7 | 0.06 | 0.27 | 0.27 | 89 | 1013.3 | |
| 20260507161212 | 60 | 0.0 | 0.0 | 0.06 | 0.27 | 0.27 | 89 | 1013.4 | |
| 20260507160029 | 59 | 156 | 0.0 | 1.7 | 0.07 | 0.27 | 0.27 | 89 | 1013.4 |
| 20260507155025 | 60 | 178 | 1.7 | 4.3 | 0.06 | 0.26 | 0.26 | 89 | 1013.6 |
| 20260507154022 | 60 | 195 | 1.7 | 4.3 | 0.05 | 0.25 | 0.25 | 89 | 1013.7 |
| 20260507153038 | 60 | 193 | 2.6 | 7.0 | 0.04 | 0.24 | 0.24 | 89 | 1013.7 |
| 20260507152055 | 60 | 183 | 4.3 | 11.3 | 0.01 | 0.21 | 0.21 | 88 | 1013.6 |
| 20260507151111 | 60 | 185 | 3.5 | 13.0 | 0.01 | 0.21 | 0.21 | 88 | 1013.7 |
| 20260507150028 | 60 | 179 | 3.5 | 8.7 | 0.00 | 0.20 | 0.20 | 88 | 1013.6 |
| 20260507145024 | 60 | 177 | 4.3 | 11.3 | 0.00 | 0.20 | 0.20 | 88 | 1013.7 |
| 20260507144020 | 60 | 186 | 3.5 | 11.3 | 0.00 | 0.20 | 0.20 | 88 | 1013.7 |
| 20260507143017 | 60 | 201 | 0.9 | 4.3 | 0.00 | 0.20 | 0.20 | 88 | 1013.7 |
| 20260507142033 | 60 | 162 | 0.9 | 4.3 | 0.01 | 0.20 | 0.20 | 88 | 1013.6 |
| 20260507141030 | 60 | 117 | 0.9 | 4.3 | 0.04 | 0.20 | 0.20 | 88 | 1013.7 |
| 20260507140026 | 60 | 130 | 1.7 | 7.0 | 0.05 | 0.20 | 0.20 | 88 | 1013.7 |
| 20260507135023 | 60 | 150 | 0.9 | 4.3 | 0.05 | 0.20 | 0.20 | 88 | 1013.8 |
| 20260507134019 | 60 | 175 | 0.9 | 4.3 | 0.05 | 0.20 | 0.20 | 88 | 1013.7 |
| 20260507133015 | 60 | 197 | 0.9 | 4.3 | 0.07 | 0.20 | 0.20 | 88 | 1013.9 |
| 20260507132032 | 60 | 202 | 3.5 | 8.7 | 0.07 | 0.19 | 0.19 | 88 | 1014.0 |
| 20260507131029 | 60 | 201 | 2.6 | 7.0 | 0.06 | 0.17 | 0.17 | 88 | 1013.9 |
| 20260507130105 | 60 | 188 | 1.7 | 4.3 | 0.14 | 0.15 | 0.15 | 87 | 1013.8 |
| 20260507125021 | 60 | 202 | 0.9 | 7.0 | 0.15 | 0.15 | 0.15 | 87 | 1013.8 |
| 20260507124018 | 60 | 206 | 2.6 | 7.0 | 0.15 | 0.15 | 0.15 | 87 | 1013.9 |
| 20260507123114 | 60 | 204 | 4.3 | 11.3 | 0.13 | 0.13 | 0.13 | 86 | 1013.8 |
| 20260507122031 | 60 | 193 | 6.1 | 13.0 | 0.12 | 0.12 | 0.12 | 85 | 1013.8 |
| 20260507121028 | 61 | 199 | 7.0 | 14.8 | 0.11 | 0.11 | 0.11 | 82 | 1013.7 |
| 20260507120024 | 65 | 203 | 7.0 | 17.4 | 0.01 | 0.01 | 0.01 | 73 | 1013.7 |
| 20260507115020 | 68 | 203 | 9.6 | 20.0 | 0.00 | 0.00 | 0.00 | 64 | 1013.2 |
| 20260507114016 | 70 | 203 | 7.8 | 17.4 | 0.00 | 0.00 | 0.00 | 64 | 1013.1 |
| 20260507113033 | 74 | 212 | 3.5 | 11.3 | 0.00 | 0.00 | 0.00 | 52 | 1013.0 |
| 20260507112029 | 74 | 211 | 5.2 | 11.3 | 0.00 | 0.00 | 0.00 | 50 | 1013.0 |
| 20260507111025 | 73 | 232 | 4.3 | 13.0 | 0.00 | 0.00 | 0.00 | 52 | 1013.0 |
| 20260507110022 | 74 | 225 | 4.3 | 13.0 | 0.00 | 0.00 | 0.00 | 49 | 1013.1 |
| 20260507105018 | 75 | 211 | 3.5 | 13.0 | 0.00 | 0.00 | 0.00 | 50 | 1013.2 |
| 20260507104035 | 74 | 220 | 4.3 | 11.3 | 0.00 | 0.00 | 0.00 | 52 | 1013.3 |
| 20260507103051 | 73 | 213 | 6.1 | 14.8 | 0.00 | 0.00 | 0.00 | 52 | 1013.3 |
| 20260507102027 | 74 | 217 | 6.1 | 13.0 | 0.00 | 0.00 | 0.00 | 52 | 1013.2 |
| 20260507101023 | 73 | 207 | 3.5 | 8.7 | 0.00 | 0.00 | 0.00 | 56 | 1013.3 |
| 20260507100020 | 72 | 227 | 4.3 | 11.3 | 0.00 | 0.00 | 0.00 | 58 | 1013.5 |
| 20260507095017 | 71 | 209 | 6.1 | 13.0 | 0.00 | 0.00 | 0.00 | 60 | 1013.6 |
| 20260507094113 | 70 | 199 | 4.3 | 13.0 | 0.00 | 0.00 | 0.00 | 64 | 1013.5 |
| 20260507093030 | 69 | 205 | 4.3 | 11.3 | 0.00 | 0.00 | 0.00 | 67 | 1013.7 |
| 20260507092026 | 68 | 264 | 3.5 | 8.7 | 0.00 | 0.00 | 0.00 | 66 | 1013.6 |
| 20260507091023 | 68 | 247 | 4.3 | 8.7 | 0.00 | 0.00 | 0.00 | 67 | 1013.5 |
| 20260507090019 | 67 | 206 | 3.5 | 8.7 | 0.00 | 0.00 | 0.00 | 69 | 1013.6 |
| 20260507085016 | 67 | 202 | 4.3 | 8.7 | 0.00 | 0.00 | 0.00 | 69 | 1013.4 |
| 20260507084033 | 68 | 208 | 2.6 | 8.7 | 0.00 | 0.00 | 0.00 | 68 | 1013.3 |
| 20260507083029 | 68 | 213 | 3.5 | 8.7 | 0.00 | 0.00 | 0.00 | 67 | 1013.2 |
| 20260507082026 | 68 | 201 | 2.6 | 8.7 | 0.00 | 0.00 | 0.00 | 67 | 1013.0 |
| 20260507081022 | 67 | 222 | 3.5 | 11.3 | 0.00 | 0.00 | 0.00 | 68 | 1013.1 |
| 20260507080018 | 68 | 207 | 5.2 | 13.0 | 0.00 | 0.00 | 0.00 | 68 | 1013.0 |
| 20260507075034 | 68 | 200 | 4.3 | 11.3 | 0.00 | 0.00 | 0.00 | 69 | 1013.0 |
| 20260507074031 | 67 | 196 | 4.3 | 13.0 | 0.00 | 0.00 | 0.00 | 71 | 1012.9 |
| 20260507073048 | 66 | 208 | 3.5 | 11.3 | 0.00 | 0.00 | 0.00 | 73 | 1012.8 |
| 20260507072024 | 65 | 199 | 4.3 | 11.3 | 0.00 | 0.00 | 0.00 | 74 | 1012.8 |
| 20260507071020 | 64 | 199 | 2.6 | 8.7 | 0.00 | 0.00 | 0.00 | 76 | 1012.7 |
| 20260507070017 | 64 | 208 | 3.5 | 7.0 | 0.00 | 0.00 | 0.00 | 76 | 1012.7 |
| 20260507065034 | 64 | 207 | 4.3 | 8.7 | 0.00 | 0.00 | 0.00 | 76 | 1012.8 |
| 20260507064030 | 64 | 211 | 2.6 | 8.7 | 0.00 | 0.00 | 0.00 | 76 | 1012.7 |
| 20260507063026 | 64 | 193 | 3.5 | 8.7 | 0.00 | 0.00 | 0.00 | 77 | 1012.9 |
| 20260507062023 | 64 | 193 | 3.5 | 8.7 | 0.00 | 0.00 | 0.00 | 76 | 1012.8 |
| 20260507061020 | 64 | 181 | 3.5 | 7.0 | 0.00 | 0.00 | 0.00 | 77 | 1012.7 |
| 20260507060036 | 63 | 169 | 1.7 | 7.0 | 0.00 | 0.00 | 0.00 | 78 | 1012.6 |
| 20260507055033 | 62 | 185 | 1.7 | 8.7 | 0.00 | 0.00 | 0.00 | 79 | 1012.6 |
| 20260507054029 | 61 | 153 | 1.7 | 4.3 | 0.00 | 0.00 | 0.00 | 80 | 1012.5 |
| 20260507053025 | 61 | 179 | 1.7 | 7.0 | 0.00 | 0.00 | 0.00 | 81 | 1012.4 |
| 20260507052022 | 61 | 202 | 0.0 | 1.7 | 0.00 | 0.00 | 0.00 | 82 | 1012.2 |
| 20260507051018 | 61 | 201 | 0.0 | 1.7 | 0.00 | 0.00 | 0.00 | 82 | 1012.1 |
| 20260507050035 | 60 | 172 | 0.0 | 1.7 | 0.00 | 0.00 | 0.00 | 83 | 1012.1 |
| 20260507045031 | 59 | 169 | 0.0 | 1.7 | 0.00 | 0.00 | 0.00 | 84 | 1012.0 |
| 20260507044028 | 59 | 114 | 0.0 | 1.7 | 0.00 | 0.00 | 0.00 | 84 | 1012.0 |
| 20260507043104 | 59 | 145 | 0.9 | 7.0 | 0.00 | 0.00 | 0.00 | 84 | 1011.9 |
| 20260507042101 | 59 | 179 | 0.0 | 1.7 | 0.00 | 0.00 | 0.00 | 84 | 1011.6 |
| 20260507041017 | 59 | 139 | 0.0 | 1.7 | 0.00 | 0.00 | 0.00 | 85 | 1011.4 |
| 20260507040033 | 58 | 149 | 0.0 | 1.7 | 0.00 | 0.00 | 0.00 | 85 | 1011.3 |
| 20260507035049 | 58 | 0.0 | 0.0 | 0.00 | 0.00 | 0.00 | 85 | 1011.3 | |
| 20260507034046 | 58 | 0.0 | 0.0 | 0.00 | 0.00 | 0.00 | 85 | 1011.3 | |
| 20260507033022 | 58 | 0.0 | 1.7 | 0.00 | 0.00 | 0.00 | 84 | 1011.2 | |
| 20260507032018 | 58 | 117 | 0.0 | 1.7 | 0.00 | 0.00 | 0.00 | 84 | 1011.1 |
| 20260507031035 | 59 | 0.0 | 1.7 | 0.00 | 0.00 | 0.00 | 83 | 1011.1 | |
| 20260507030031 | 59 | 205 | 0.0 | 1.7 | 0.00 | 0.00 | 0.00 | 83 | 1011.0 |
| 20260507025028 | 59 | 170 | 0.0 | 1.7 | 0.00 | 0.00 | 0.00 | 83 | 1011.2 |
| 20260507024024 | 60 | 171 | 0.0 | 1.7 | 0.00 | 0.00 | 0.00 | 80 | 1011.1 |
| 20260507023020 | 60 | 0.0 | 0.0 | 0.00 | 0.00 | 0.00 | 80 | 1011.0 | |
| 20260507022017 | 60 | 0.0 | 0.0 | 0.00 | 0.00 | 0.00 | 79 | 1010.9 | |
| 20260507021033 | 60 | 277 | 0.0 | 1.7 | 0.00 | 0.00 | 0.00 | 79 | 1010.8 |
| 20260507020049 | 60 | 307 | 0.0 | 1.7 | 0.00 | 0.00 | 0.00 | 79 | 1010.8 |
| 20260507015025 | 60 | 0.0 | 0.0 | 0.00 | 0.00 | 0.00 | 79 | 1010.9 | |
| 20260507014022 | 60 | 0.0 | 1.7 | 0.00 | 0.00 | 0.00 | 79 | 1010.9 | |
| 20260507013018 | 60 | 0.0 | 0.0 | 0.00 | 0.00 | 0.00 | 79 | 1011.0 | |
| 20260507012035 | 60 | 0.0 | 0.0 | 0.00 | 0.00 | 0.00 | 78 | 1010.9 | |
| 20260507011031 | 61 | 0.0 | 0.0 | 0.00 | 0.00 | 0.00 | 77 | 1010.9 | |
| 20260507010027 | 61 | 0.0 | 0.0 | 0.00 | 0.00 | 0.00 | 77 | 1010.7 | |
| 20260507005023 | 61 | 0.0 | 0.0 | 0.00 | 0.00 | 0.00 | 76 | 1010.5 | |
| 20260507004019 | 61 | 0.0 | 0.0 | 0.00 | 0.00 | 0.00 | 76 | 1010.7 | |
| 20260507003035 | 62 | 0.0 | 0.0 | 0.00 | 0.00 | 0.00 | 76 | 1010.8 | |
| 20260507002032 | 62 | 250 | 0.0 | 1.7 | 0.00 | 0.00 | 0.00 | 75 | 1010.9 |
| 20260507001048 | 62 | 274 | 0.9 | 4.3 | 0.00 | 0.00 | 0.00 | 75 | 1010.8 |
| 20260507000024 | 61 | 250 | 0.0 | 1.7 | 0.00 | 0.00 | 0.00 | 75 | 1011.0 |
| 20260506235021 | 61 | 246 | 0.9 | 4.3 | 0.00 | 0.00 | 0.00 | 75 | 1011.2 |
| 20260506234017 | 61 | 235 | 0.0 | 4.3 | 0.00 | 0.00 | 0.00 | 75 | 1011.2 |
| 20260506233054 | 60 | 236 | 1.7 | 8.7 | 0.00 | 0.00 | 0.00 | 76 | 1011.2 |
| 20260506232030 | 58 | 198 | 0.9 | 4.3 | 0.00 | 0.00 | 0.00 | 76 | 1011.3 |